Lid_Strength_Index
15 18 19 18 17 18 19 20 21 20 17 19 18 18 16 15 15 15 16 16 16 16 16 15 14 14 15 14 14 13 13 12 12 12 11 10 10 9 7 7 6 6 6 6
17 19 15 15 16 17 19 21 21 19 17 19 19 19 15 16 16 15 15 16 17 17 18 17 16 16 15 15 14 14 13 12 12 11 10 10 9 8 7 6 5 5 4 4
19 16 14 16 18 18 19 20 21 21 19 19 20 21 20 17 16 16 16 16 17 18 18 18 17 17 16 16 15 14 13 12 11 11 11 9 9 9 8 6 5 2 1 3
17 14 16 17 18 18 21 18 19 20 23 24 19 25 19 18 17 17 17 17 18 19 18 17 17 17 17 16 15 14 13 12 11 12 12 12 11 11 9 7 5 3 2 4
18 17 17 18 17 17 20 18 20 20 24 26 21 28 21 19 18 17 16 18 19 18 18 18 19 16 17 16 16 15 14 13 12 12 12 12 11 10 8 7 5 3 3 5
17 15 16 16 16 17 18 19 20 20 21 29 24 23 21 21 20 19 19 19 17 18 18 18 17 16 17 17 16 16 15 14 13 12 12 12 11 11 9 8 6 4 5 6
16 17 16 16 18 17 19 21 29 29 30 27 21 23 19 20 19 19 20 19 21 19 19 19 19 18 17 18 17 16 15 15 13 13 13 12 11 11 10 8 7 6 8 8
19 20 18 16 18 19 20 22 25 30 30 27 20 26 20 21 23 25 23 24 20 19 19 20 20 19 18 17 17 17 16 15 14 14 13 13 11 11 10 9 8 8 10 10
19 19 18 18 17 18 20 21 19 27 29 28 25 21 17 18 21 23 23 19 20 21 21 21 20 20 19 19 18 17 17 16 15 14 14 13 12 12 11 10 9 10 10 10
18 21 18 18 17 18 19 17 22 25 30 31 26 25 22 21 23 22 22 21 22 21 21 21 21 20 19 19 19 18 18 19 18 15 14 13 13 13 12 11 11 11 11 11
17 19 19 19 22 23 20 21 20 21 24 29 28 24 23 22 24 23 21 21 24 24 24 23 22 21 22 22 22 21 20 21 18 16 15 14 14 13 13 13 12 12 12 12
16 18 20 19 21 19 18 23 22 25 27 29 26 23 26 25 27 26 22 20 24 23 24 24 23 25 24 24 23 22 21 22 18 17 15 15 14 13 14 13 13 12 13 13
16 19 22 20 21 20 22 20 22 24 24 29 27 23 26 29 25 22 25 25 24 22 24 27 27 27 25 24 23 23 22 19 18 18 16 15 14 14 14 14 13 13 13 13
15 19 20 21 22 22 24 24 21 21 29 29 25 24 17 22 23 22 25 25 28 28 29 31 30 27 26 25 25 24 20 20 19 17 17 17 16 15 15 14 14 13 14 14
17 21 20 19 20 23 23 25 22 22 25 23 26 27 20 18 20 25 29 30 28 28 29 30 30 29 26 25 24 21 21 21 20 18 18 18 16 15 15 15 15 14 14 14
17 21 20 21 24 27 25 25 23 20 28 25 22 20 18 27 32 28 27 31 30 31 30 30 31 30 26 26 24 22 21 20 20 19 18 17 17 17 16 16 16 16 16 15
18 19 21 25 23 22 24 26 26 27 29 21 25 21 30 24 27 26 26 28 27 28 30 29 28 28 26 23 20 23 21 20 19 19 17 17 17 17 17 17 17 17 17 16
18 20 20 24 22 26 21 31 27 25 27 22 24 24 25 24 25 27 27 26 26 28 28 27 26 22 23 21 21 19 18 19 20 19 18 17 17 18 17 17 18 18 18 18
17 18 22 25 28 21 19 26 25 23 22 23 20 18 27 30 26 21 26 28 25 25 25 25 25 26 24 23 22 19 21 20 20 20 19 19 19 19 19 19 19 18 18 18
17 18 21 25 26 28 21 22 22 24 23 25 24 24 27 20 22 19 27 26 27 25 25 24 25 24 23 23 21 19 20 19 20 19 19 19 20 20 20 20 20 19 19 19
23 22 23 24 25 23 20 19 18 22 21 25 28 25 22 21 19 21 26 25 25 24 24 25 24 23 23 24 22 21 22 22 21 20 19 19 19 20 19 19 19 19 20 19
22 23 23 24 27 25 18 18 19 17 21 24 27 26 22 21 27 27 25 23 23 23 23 21 23 22 22 21 20 21 22 21 21 21 21 22 23 20 20 23 22 22 22 23
21 17 19 20 20 17 19 17 18 21 18 21 20 20 19 19 21 20 21 21 21 21 21 20 21 21 21 21 21 22 22 22 23 25 26 27 25 22 22 24 24 24 25 25
17 16 17 17 15 16 14 14 15 17 16 16 15 15 16 16 18 19 20 20 20 20 20 20 22 22 22 22 20 20 21 22 25 26 26 26 26 25 25 22 22 24 25 25
15 15 16 17 15 14 13 14 13 14 17 15 15 15 15 16 17 18 19 19 19 19 20 21 21 21 21 22 22 23 22 23 24 25 25 25 24 24 24 23 23 22 22 22
14 15 17 17 14 14 13 12 13 13 13 13 14 15 16 15 16 17 18 18 19 20 20 22 22 22 22 23 23 24 24 23 24 24 24 24 24 25 25 25 25 19 17 17